sat.trackr.live / text

‹ back to catalog

STARLINK-35404

NORAD 66336 · 2025-253T

PAYLOAD ACTIVE UNKNOWN

§ Identity

Operator
Country
US
Launch date
2025-11-06
Launch site
AFETR
Launch vehicle
Mass (kg)
RCS (m²)

Purposes: comms

External: N2YO · Heavens-Above · Gunter

§ Orbital elements

Epoch: 2026-09-20T12:42:33.049152Z

Period
94.27 min
Inclination
43.0014°
Eccentricity
0.0001242
Mean motion
15.27586537 rev/d
Perigee alt
482.2 km
Apogee alt
483.9 km
Semi-major
6,861.2 km
B*
3.2247e-4
RAAN
192.0732°
Arg perigee
283.9523°
Mean anomaly
76.1190°
Rev number
5,004

§ Raw data

STARLINK-354041 66336U 25253T   26263.52954918  .00008624  00000+0  32247-3 0  99932 66336  43.0014 192.0732 0001242 283.9523  76.1190 15.27586537 50045

JSON: /api/v1/satellites/66336 · /tle

For live sub-satellite position, see the globe view (requires WebGL).

§ Visibility from observer

Set your observer location to see the next 7 days of passes ≥ 10°. The values pass through the URL so the page stays shareable.

No JS? Fill the form by hand. The geolocation button needs JavaScript.